Location: Donald C. Martin Observatory
(38.3885°N, 82.3916°W)
Time: 05:28:27
(UTC-04:00)

Cosmos 1484 Rocket - Visible Passes

Search period start: 15 September 2014 00:00
Search period end: 25 September 2014 00:00
Orbit: 515 x 574 km, 97.4° (Epoch: 14 September)

Date Brightness Start Highest point End Pass type
(mag) Time Alt. Az. Time Alt. Az. Time Alt. Az.
15 Sep 3.2 20:27:52 10° SE 20:31:24 40° ENE 20:35:01 10° N visible
15 Sep 5.8 22:04:51 10° WSW 22:06:15 12° W 22:07:41 10° WNW visible
16 Sep 3.4 20:22:03 10° SE 20:25:30 34° ENE 20:29:00 10° N visible
16 Sep 5.7 21:58:14 10° SW 22:00:16 14° W 22:02:19 10° WNW visible
17 Sep 3.6 20:16:17 10° SE 20:19:35 29° ENE 20:22:56 10° N visible
17 Sep 5.5 21:51:49 10° SW 21:54:16 17° W 21:56:46 10° NW visible
18 Sep 3.9 20:10:32 10° SE 20:13:40 25° ENE 20:16:51 10° NNE visible
18 Sep 5.3 21:45:29 10° SW 21:48:16 19° W 21:51:06 10° NW visible
19 Sep 4.1 20:04:49 10° ESE 20:07:45 22° ENE 20:10:44 10° NNE visible
19 Sep 5.0 21:39:15 10° SSW 21:42:17 23° W 21:45:23 10° NW visible
20 Sep 4.3 19:59:09 10° ESE 20:01:51 19° ENE 20:04:35 10° NNE visible
20 Sep 4.8 21:33:23 12° SSW 21:36:17 27° W 21:39:36 10° NW visible
21 Sep 4.4 19:53:32 10° ESE 19:55:56 16° ENE 19:58:21 10° NNE visible
21 Sep 4.4 21:27:31 14° SSW 21:30:17 32° W 21:33:47 10° NNW visible
22 Sep 4.6 19:48:00 10° E 19:50:01 14° ENE 19:52:03 10° NE visible
22 Sep 4.1 21:21:38 16° SSW 21:24:17 38° W 21:27:56 10° NNW visible
23 Sep 3.8 21:15:46 18° SSW 21:18:17 45° W 21:22:03 10° NNW visible
24 Sep 3.4 21:09:53 21° S 21:12:18 55° W 21:16:09 10° NNW visible
